Flag for Germany Weather past 2 weeks in Maintal, Hesse, Germany

Now
62 °F

Overcast.


Feels Like: 62 °F
Forecast: 57 / 82 °F
Wind: 2 mph from Northeast

Location: Frankfurt / M-Flughafen

Current Time: Jun 30, 2015 at 1:34:47 AM

Latest Report: Jun 30, 2015 at 1:00 AM


Visibility: 37 mi

Pressure: 30.18 "Hg

Humidity: 77%

Dew point: 55 °F

Location of MaintalLocation

Historic Weather in Maintal — Graph

°F

Maintal temperature yesterday

Maximum temperature yesterday: 82 °F (at 3:00 PM)
Minimum temperature yesterday: 58 °F (at 6:00 AM)
Average temperature yesterday: 70 °F

Past Weeks' High & Low Weather Summary

 TemperatureHumidityPressure
High82 °F (Jun 29, 3:00 PM)100% (Jun 22, 2:00 AM)30.29 "Hg (Jun 22, 2:00 AM)
Low49 °F (Jun 23, 6:00 AM)20% (Jun 17, 3:00 PM)29.70 "Hg (Jun 22, 11:00 PM)
Average62 °F69%30.08 "Hg
* Reported Midnight between Jun 14 and Jun 15 — Midnight between Jun 29 and Jun 30, Maintal, Weather by CustomWeather, © 2015

Note: Actual official high and low records may vary slightly from our data, if they occured in-between our weather recording intervals... More about our weather records

Advertising

Maintal weather history for previous 24 hours

 ConditionsComfort  
Time TempWeatherWind HumidityBarometerVisibility
12:00 AM
Tue, Jun 30
67 °FOvercast.2 mph65%30.18 "Hg37 mi
10:00 PM
Mon, Jun 29
74 °FOvercast.3 mph44%30.14 "Hg40 mi
9:00 PM77 °FOvercast.3 mph46%30.13 "Hg40 mi
8:00 PM79 °FOvercast.6 mph43%30.11 "Hg40 mi
7:00 PM80 °FOvercast.6 mph44%30.10 "Hg40 mi
6:00 PM82 °FOvercast.3 mph40%30.09 "Hg40 mi
4:00 PM82 °FPartly sunny.2 mph41%30.10 "Hg37 mi
3:00 PM82 °FScattered clouds.5 mph40%30.10 "Hg37 mi
2:00 PM79 °FPartly sunny.5 mph46%30.12 "Hg34 mi
1:00 PM77 °FOvercast.2 mph53%30.13 "Hg28 mi
12:00 PM74 °FOvercast.2 mph53%30.14 "Hg28 mi
10:00 AM69 °FOvercast.3 mph66%30.15 "Hg28 mi
9:00 AM67 °FOvercast.2 mph68%30.14 "Hg28 mi
8:00 AM66 °FPartly sunny.1 mph67%30.14 "Hg25 mi
7:00 AM61 °FOvercast.1 mph91%30.14 "Hg28 mi
6:00 AM58 °FOvercast.1 mph96%30.13 "Hg28 mi
4:00 AM58 °FOvercast.1 mph94%30.13 "Hg31 mi
3:00 AM59 °FOvercast.1 mph92%30.14 "Hg31 mi
2:00 AM61 °FOvercast.1 mph87%30.14 "Hg31 mi
1:00 AM61 °FOvercast.1 mph86%30.14 "Hg31 mi
Weather by CustomWeather, © 2015

See weather overviewHow to use our weather pages